Location: Unspecified
(0.0000°N, 0.0000°E)
Time: 02:33:59
(UTC+00:00)

Tiangong - Pass Details

Date: 29 September 2022
Orbit: 377 x 383 km, 41.5° (Epoch: 24 September)

Event Time Altitude Azimuth Distance (km) Brightness Sun altitude
Rises 19:30:50 0° 228° (SW) 2,234 2.5 -25.1°
Reaches altitude 10° 19:32:54 10° 230° (SW) 1,380 1.3 -25.6°
Enters shadow 19:33:52 18° 232° (SW) 993 0.5 -25.9°
